Simultaneous Nadir Overpasses (SNOs) Predictions

Prediction of SNOs between NOAA-20 and AQUA Satellite Orbit:

Table of predicted SNOs for the next 14.0 days since TLE Epoch: 7/27/2024
Index Date (NOAA-20) Time (NOAA-20) Lat,Lon (NOAA-20) SZA (NOAA-20 ) Date (AQUA) Time (AQUA) Lat,Lon (AQUA) SZA (AQUA ) Distance(km) Time Diff (sec)
1 07/28/2024 05:46:31 81.30, 18.85 69.28 07/28/2024 05:46:45 81.30, 18.77 69.28 1.42 14
2 07/28/2024 06:37:15 -81.30,-173.47 110.77 07/28/2024 06:36:07 -81.30,-173.49 110.73 0.57 68
3 07/30/2024 17:49:41 -81.30, 18.26 110.17 07/30/2024 17:50:02 -81.30, 18.16 110.16 1.78 21
4 07/30/2024 18:40:25 81.31,-174.10 69.80 07/30/2024 18:39:23 81.30,-174.20 69.85 1.73 62
5 08/02/2024 05:52:52 81.30, 17.14 70.51 08/02/2024 05:53:17 81.30, 17.33 70.46 3.26 25
6 08/02/2024 06:43:36 -81.30,-175.09 109.56 08/02/2024 06:42:39 -81.31,-174.90 109.55 3.22 57
7 08/04/2024 17:56:01 -81.30, 16.52 108.88 08/04/2024 17:56:31 -81.30, 16.54 108.90 0.38 30
8 08/04/2024 18:46:45 81.30,-175.92 71.10 08/04/2024 18:45:52 81.30,-175.86 71.12 1.29 53
9 08/07/2024 05:59:10 81.30, 15.99 71.76 08/07/2024 05:59:43 81.30, 15.86 71.76 2.07 33
10 08/07/2024 06:49:54 -81.31,-176.16 108.31 08/07/2024 06:49:05 -81.31,-176.36 108.25 3.22 49
11 08/09/2024 18:02:21 -81.30, 14.95 107.51 08/09/2024 18:02:56 -81.29, 14.89 107.52 1.22 35



Historial Predications of SNOs between NOAA-20 and AQUA
